Location: Handeloh
(53.2500°N, 9.8330°E)
Time: 13:13:50
(UTC+01:00)

S-56A Canister/Altair - Pass Details

Date: 19 November 2019
Orbit: 633 x 2499 km, 38.9° (Epoch: 10 December)

Event Time Altitude Azimuth Distance (km) Brightness Sun altitude
Rises 18:27:14 0° 237° (WSW) 4,895 12.8 -18.6°
Reaches altitude 10° 18:31:35 10° 226° (SW) 3,553 11.7 -19.3°
Maximum altitude 18:38:00 24° 177° (S) 2,152 9.8 -20.2°
Enters shadow 18:41:14 17° 139° (SE) 2,288 9.6 -20.7°
Drops below altitude 10° 18:42:52 10° 126° (SE) 2,608 - -21.0°
Sets 18:45:31 0° 111° (ESE) 3,348 - -21.4°
